Location: Caixon
(43.4106°N, 0.0273°E)
Time: 16:12:49
(UTC+00:00)

Cosmos 2218 Rocket - Pass Details

Date: 16 October 2021
Orbit: 956 x 1006 km, 82.9° (Epoch: 28 November)

Event Time Altitude Azimuth Distance (km) Brightness Sun altitude
Rises 05:30:04 0° 346° (NNW) 3,743 6.9 -8.9°
Reaches altitude 10° 05:32:42 10° 341° (NNW) 2,791 6.2 -8.5°
Maximum altitude 05:38:45 46° 270° (W) 1,325 4.3 -7.4°
Drops below altitude 10° 05:44:46 10° 199° (SSW) 2,765 6.3 -6.3°
Sets 05:47:23 0° 194° (SSW) 3,706 7.0 -5.8°
